FW7487 Weather Reports


Display with metric or nautical units.
time (UTC)temp
F
wind
direction
speed
MPH
gust
MPH
rain 1hr
in
rain 24hr
in
rain mn
in
humidity
%
barometer
mb
20260505124547 58 360 2.0 5.0 0.00 0.00 0.00 75 1017.2
20260505123106 56 360 1.0 3.0 0.00 0.00 0.00 77 1016.8
20260505121552 54 360 0.0 2.0 0.00 0.00 0.00 80 1016.7
20260505120052 52 360 1.0 4.0 0.00 0.00 0.00 83 1016.5
20260505114611 51 360 1.0 4.0 0.00 0.00 0.00 85 1016.5
20260505113049 50 360 1.0 4.0 0.00 0.00 0.00 88 1016.2
20260505111602 50 360 1.0 2.0 0.00 0.00 0.00 89 1015.9
20260505101549 50 0 1.0 2.0 0.00 0.00 0.00 87 1015.7
20260505100052 51 0 0.0 1.0 0.00 0.00 0.00 86 1015.7
20260505094552 50 0 0.0 2.0 0.00 0.00 0.00 86 1015.7
20260505093047 50 360 1.0 2.0 0.00 0.00 0.00 86 1016.0
20260505091545 50 0 0.0 0.0 0.00 0.00 0.00 86 1016.0
20260505090058 51 0 0.0 2.0 0.00 0.00 0.00 85 1016.2
20260505084548 51 0 0.0 2.0 0.00 0.00 0.00 85 1016.5
20260505083100 51 0 0.0 0.0 0.00 0.00 0.00 84 1016.3
20260505081553 52 0 0.0 1.0 0.00 0.00 0.00 83 1016.1
20260505080047 52 0 0.0 1.0 0.00 0.00 0.00 83 1015.8
20260505074545 52 0 0.0 1.0 0.00 0.00 0.00 83 1015.7
20260505073049 52 360 0.0 2.0 0.00 0.00 0.00 82 1015.9
20260505071550 52 360 0.0 2.0 0.00 0.00 0.00 82 1015.9
20260505070052 52 0 0.0 0.0 0.00 0.00 0.00 82 1016.0
20260505064558 53 0 0.0 1.0 0.00 0.00 0.00 82 1016.0
20260505063051 53 0 0.0 0.0 0.00 0.00 0.00 81 1015.9
20260505061552 53 0 0.0 0.0 0.00 0.00 0.00 80 1015.9
20260505054600 54 360 0.0 2.0 0.00 0.00 0.00 79 1016.0
20260505053107 55 360 1.0 2.0 0.00 0.00 0.00 78 1016.2
20260505051547 55 0 0.0 1.0 0.00 0.00 0.00 75 1016.1
20260505041610 56 0 0.0 1.0 0.00 0.00 0.00 75 1016.1
20260505040051 57 0 0.0 0.0 0.00 0.00 0.00 74 1016.3
20260505034548 57 0 0.0 0.0 0.00 0.00 0.00 73 1016.5
20260505033042 58 0 0.0 0.0 0.00 0.00 0.00 72 1016.5
20260505031600 59 0 0.0 0.0 0.00 0.00 0.00 70 1016.6
20260505030049 59 0 0.0 0.0 0.00 0.00 0.00 68 1016.5
20260505024549 60 0 0.0 1.0 0.00 0.00 0.00 68 1016.7
20260505023049 61 0 0.0 0.0 0.00 0.00 0.00 65 1016.6
20260505021548 62 0 0.0 1.0 0.00 0.00 0.00 64 1016.6
20260505020044 63 0 0.0 0.0 0.00 0.00 0.00 62 1016.5
20260505014550 64 0 0.0 0.0 0.00 0.00 0.00 58 1016.2
20260505013048 66 0 0.0 1.0 0.00 0.00 0.00 56 1015.8
20260505011547 66 0 0.0 1.0 0.00 0.00 0.00 56 1015.8
20260505010047 67 0 0.0 1.0 0.00 0.00 0.00 52 1015.7
20260505004546 69 0 0.0 0.0 0.00 0.00 0.00 50 1015.6
20260505003047 70 0 0.0 3.0 0.00 0.00 0.00 47 1015.4
20260505001552 71 360 0.0 1.0 0.00 0.00 0.00 46 1015.4
20260505000055 73 0 0.0 4.0 0.00 0.00 0.00 44 1015.5
20260504234557 73 0 0.0 9.0 0.00 0.00 0.00 42 1015.5
20260504233050 75 360 1.0 4.0 0.00 0.00 0.00 40 1015.5
20260504231559 75 360 1.0 3.0 0.00 0.00 0.00 40 1015.5
20260504230049 75 0 1.0 6.0 0.00 0.00 0.00 40 1015.5
20260504224549 76 0 1.0 5.0 0.00 0.00 0.00 38 1015.4
20260504223052 77 158 3.0 8.0 0.00 0.00 0.00 35 1015.5
20260504221558 77 182 2.0 6.0 0.00 0.00 0.00 36 1015.6
20260504220047 78 121 1.0 5.0 0.00 0.00 0.00 35 1015.2
20260504214548 78 130 2.0 7.0 0.00 0.00 0.00 36 1015.2
20260504213048 78 171 3.0 11.0 0.00 0.00 0.00 34 1015.3
20260504211549 78 128 2.0 7.0 0.00 0.00 0.00 34 1015.3
20260504210105 79 223 1.0 9.0 0.00 0.00 0.00 33 1015.4
20260504204559 80 185 1.0 4.0 0.00 0.00 0.00 33 1015.5
20260504203049 79 123 2.0 6.0 0.00 0.00 0.00 34 1015.7
20260504201548 79 143 1.0 7.0 0.00 0.00 0.00 32 1015.7
20260504200051 79 178 0.0 6.0 0.00 0.00 0.00 34 1016.0
20260504194600 78 151 2.0 7.0 0.00 0.00 0.00 36 1016.1
20260504193046 77 161 2.0 9.0 0.00 0.00 0.00 37 1016.4
20260504191549 78 196 1.0 5.0 0.00 0.00 0.00 34 1016.8
20260504184546 77 157 2.0 8.0 0.00 0.00 0.00 34 1017.0
20260504183050 78 342 3.0 8.0 0.00 0.00 0.00 34 1017.3
20260504181550 78 321 1.0 7.0 0.00 0.00 0.00 35 1017.3
20260504180138 78 153 1.0 5.0 0.00 0.00 0.00 34 1017.6
20260504174542 76 304 3.0 9.0 0.00 0.00 0.00 36 1017.7
20260504173059 75 150 1.0 9.0 0.00 0.00 0.00 34 1017.6
20260504171549 75 189 1.0 9.0 0.00 0.00 0.00 36 1017.8